{"data":{"norad_id":60094,"epoch":"2026-09-21T13:01:09.607584Z","epoch_age_seconds":87516,"freshness":"FRESH","line1":"1 60094U 24117D   26264.54247231 -.00002270  00000+0 -56130-4 0  9993","line2":"2 60094  53.1617 204.4892 0001392  90.2202 269.8960 15.34371932126910","mean_motion":15.34371932,"eccentricity":0.0001392,"inclination_deg":53.1617,"raan_deg":204.4892,"arg_perigee_deg":90.2202,"mean_anomaly_deg":269.896,"bstar":-5.613e-5,"rev_number":12691,"period_min":93.849474822119,"perigee_km":461.83440891565,"apogee_km":463.73892206412,"semimajor_km":6840.9236654899,"source":"CELESTRAK","updated_at":"2026-09-22T09:00:49.149952Z"}}